Starlink 33693

operational
NORAD ID: 63409 Int'l Des: 2025-065 Owner: SPXS Country: US Constellation: starlink
LEOCIRCULAR

关于 Starlink 33693

正在加载描述...

实时位置

正在加载3D地球...

即将过境

高度历史

Altitude vs Time

uPlot chart will show altitude changes over time

两行轨道根数

1 63409U 25065L 25350.02210753 .00020460 00000-0 74963-3 0 9999
2 63409 42.9992 219.6234 0001946 260.2826 99.7806 15.27637506 40041
Epoch: Dec 16, 2025 • Age: 21 hours

当前状态

高度 487.1 km
速度 7.63 km/s
星下点 42.30°N, 114.16°W
发射日期 Mar 31, 2025
运行时间 0.7 years
类型 internet

技术详情

分类 Payload
质量 575.00 kg
干质量 530.00 kg
总质量 575.00 kg
长度 0.30 m
直径 4.10 m
跨度 29.00 m
形状 Box + pan
制造商 SPXS
平台类型 Starlink V2MO
阶段状态 In Orbit
所有者/国家 SPXS/US

大型星座

Loading constellations...